Location: Maccacari
(45.1333°N, 11.1333°E)
Time: 21:27:49
(UTC+00:00)

A-11 Canister half - Visible Passes

Search period start: 21 January 2021 00:00
Search period end: 31 January 2021 00:00
Orbit: 1524 x 1684 km, 47.3° (Epoch: 20 January)

Date Brightness Start Highest point End Pass type
(mag) Time Alt. Az. Time Alt. Az. Time Alt. Az.
21 Jan 9.0 17:39:06 10° W 17:48:41 79° N 17:55:08 25° E visible
21 Jan 9.1 19:44:19 10° WNW 19:53:27 73° SW 19:53:27 73° SW visible
21 Jan 11.0 21:49:52 10° WNW 21:51:45 16° W 21:51:45 16° W visible
22 Jan 9.1 17:17:26 10° W 17:27:00 79° N 17:34:51 18° E visible
22 Jan 8.9 19:22:40 10° WNW 19:32:19 76° SSW 19:33:10 72° SSE visible
22 Jan 10.7 21:28:09 10° WNW 21:31:29 21° W 21:31:29 21° W visible
23 Jan 9.1 16:55:47 10° W 17:05:19 79° N 17:14:37 12° E visible
23 Jan 9.0 19:01:01 10° WNW 19:10:39 78° SSW 19:12:56 58° SE visible
23 Jan 10.4 21:06:26 10° WNW 21:11:15 27° W 21:11:15 27° W visible
24 Jan 9.1 16:34:07 10° W 16:43:38 79° N 16:53:29 10° E visible
24 Jan 9.0 18:39:21 10° WNW 18:48:59 80° SSW 18:52:46 44° SE visible
24 Jan 10.2 20:44:43 10° WNW 20:51:05 33° WSW 20:51:05 33° WSW visible
25 Jan 9.0 18:17:42 10° WNW 18:27:19 82° SSW 18:32:39 32° ESE visible
25 Jan 9.9 20:23:01 10° WNW 20:30:59 37° SW 20:30:59 37° SW visible
26 Jan 9.1 17:56:04 10° WNW 18:05:39 84° SSW 18:12:38 23° ESE visible
26 Jan 9.8 20:01:19 10° WNW 20:10:02 39° SW 20:10:58 39° SSW visible
27 Jan 9.1 17:34:24 10° WNW 17:43:58 85° SSW 17:52:43 15° ESE visible
27 Jan 9.9 19:39:38 10° WNW 19:48:25 41° SW 19:51:04 35° S visible
28 Jan 9.1 17:12:45 10° WNW 17:22:18 87° SSW 17:32:11 10° ESE visible
28 Jan 9.8 19:17:57 10° WNW 19:26:48 43° SW 19:31:16 28° S visible
28 Jan 11.1 21:27:31 10° WSW 21:29:38 11° WSW 21:29:38 11° WSW visible
29 Jan 9.1 16:51:06 10° WNW 17:00:38 88° SSW 17:10:30 10° ESE visible
29 Jan 9.8 18:56:16 10° WNW 19:05:11 45° SW 19:11:37 20° SSE visible
29 Jan 11.1 21:05:03 10° WSW 21:08:20 12° WSW 21:10:00 12° SW visible
30 Jan 9.8 18:34:36 10° WNW 18:43:33 46° SW 18:52:09 12° SSE visible
30 Jan 11.1 20:42:49 10° W 20:46:46 13° WSW 20:50:32 10° SW visible
